Weather in Katsiveli

Russia / Republic of Crimea     44°23′36″N   33°58′19″E
temp.,
°C
wind,
m/s
gust,
m/s
humid.,
%
clouds,
%
prec.,
mm/h
press.,
hPa
HPBL,
m
6 may, thu
thu600:00+7e334590 0.0 101448
03:00+7ene33425 0.0 101343
06:00+7e33479 0.0 101245
09:00+14ese223697 0.0 1012485
12:00+17sse2234100 0.0 10121163
15:00+17w123934 0.0 1012764
18:00+15w22495 0.0 1013470
21:00+9n11695 0.0 101513
7 may, fri
fri700:00+9nne22676 0.0 101624
03:00+9n116036 0.0 101612
06:00+9ene11583 0.0 101711
09:00+15se224999 0.0 1016557
12:00+17sse3344100 0.0 1017963
15:00+17sse23455 0.0 1016893
18:00+15sse22563 0.0 1016432
21:00+11ese2372100 0.0 101645
8 may, sat
sat800:00+10ese347489 0.0 101652
03:00+10ese3367100 0.0 101446
06:00+11ese3458100 0.0 101356
09:00+17ese344096 0.0 1012350
12:00+20se34355 0.0 1012813
15:00+21se3334100 0.0 1010958
18:00+16nw335981 0.0 1011443
21:00+10nnw4591100 0.1 1013265
9 may, sun
sun900:00+7n6792100 0.2 1016423
03:00+5n7139246 1.4 1018770
06:00+4nnw4129367 0.0 10211042
09:00+7nnw37625 0.0 10231148
12:00+11nnw36392 0.0 10241717
15:00+12nnw46402 0.0 10241698
18:00+10nnw35495 0.0 10251191
21:00+5n33823 0.0 102849
10 may, mon
mon1000:00+5n22813 0.0 102832
03:00+5n22695 0.0 102827
06:00+5nne22690 0.0 102824
09:00+12ne13401 0.0 10271415
12:00+13s234650 0.0 10261392
15:00+13ssw24497 0.0 10241314
18:00+12nnw25505 0.0 10231010
21:00+6se11850 0.0 102436